Weather in Kropyvnytskyi

Ukraine / Kirovohrad Region     48°30′37″N   32°15′58″E
temp.,
°C
wind,
m/s
gust,
m/s
humid.,
%
clouds,
%
prec.,
mm/h
press.,
hPa
HPBL,
m
30 november, tue
tue3023:00+8w9137611 0.0 993871
02:00+5w712695 0.0 996758
05:00+2wsw712705 0.0 999752
08:00+2w7127288 0.0 1001804
11:00+4w795786 0.0 1001994
14:00+4wnw5754100 0.0 10001130
17:00+2wnw4862100 0.0 999354
20:00+1wnw5116774 0.0 999514
1 december, wed
wed123:000wnw49775 0.0 1001305
02:00−1wsw48805 0.0 1001210
05:000sw61565100 0.0 1000582
08:00−1sw71491100 0.1 1000655
11:00+2wsw81280100 0.4 1000914
14:00+2w71278100 0.4 10001027
17:00+1wnw6138489 0.1 1004615
20:00−1wnw510825 0.1 1007342
2 december, thu
thu223:00−2w2385100 0.0 100989
02:00−2sw358121 0.0 1010126
05:00−1s498050 0.0 1009219
08:000s6157970 0.0 1009375
11:00+5s7157050 0.0 1008635
14:00+7ssw714695 0.0 1006660
17:00+4ssw4138339 0.0 1007262
20:00+4ssw51477100 0.0 1008283
3 december, fri
fri323:00+5s51397100 0.0 1008378
02:00+7s71189100 0.0 1007501
05:00+5s6159077 0.0 1006391
08:00+9ssw91577100 0.0 1006908
11:00+10s10157584 0.0 1005886
14:00+11s81474100 0.0 1004777
17:00+9ssw61181100 0.0 1005372
20:00+6sw3791100 0.0 1007172
4 december, sat
sat423:00+5nnw5883100 0.0 1009331
02:00+3n4897100 0.0 1011351
05:00+2nne3699100 0.7 1012259
08:00+2nne3594100 0.8 1013426
11:00+4ne4469100 0.0 1013552
14:00+4ne5563100 0.0 1012624
17:00+3ne5871100 0.0 1012497
20:00+2ne5984100 0.4 1011428